Location: Berkeley
(37.8716°N, 122.2727°W)
Time: 21:36:26
(UTC-07:00)

Hubble Space Telescope - Visible Passes

Search period start: 20 May 2026 00:00
Search period end: 30 May 2026 00:00
Orbit: 473 x 476 km, 28.5° (Epoch: 20 May)

Date Brightness Start Highest point End Pass type
(mag) Time Alt. Az. Time Alt. Az. Time Alt. Az.
26 May 2.3 05:13:08 10° SW 05:15:44 18° S 05:18:19 10° SE visible
27 May 2.3 04:42:49 15° SSW 04:44:09 18° S 04:46:44 10° SE visible
28 May 2.3 04:12:52 17° SSE 04:12:52 17° SSE 04:15:08 10° SE visible
29 May 2.9 03:42:59 12° SE 03:42:59 12° SE 03:43:32 10° SE visible
29 May 2.2 05:17:29 10° SW 05:20:06 18° S 05:22:43 10° SE visible
